Wind_Speed
28 29 29 30 31 31 31 31 31 30 29 29 28 28 29 29 29 28 27 27 27 27 27 27 27 26 26 26 26 27 27 28 28 29 29 30 30 31 32 32 33 33 34 34 34 35 36 37 38 39 40 41 42 43 45 46 46 47 48 48 49 50 51 51 53 55 58 58 60 62 62 63 65 66 68 71 72 73 72 71 71 73 77 77 77 80 83
28 29 30 30 31 32 33 33 33 33 32 31 31 30 31 31 31 31 30 30 30 30 30 30 30 29 29 29 29 29 30 31 31 31 32 32 33 33 34 35 35 36 36 37 37 38 39 40 41 41 42 43 44 45 46 47 48 48 49 49 50 51 51 52 52 54 57 59 61 63 63 64 66 68 70 72 74 74 73 73 72 72 76 79 79 79 81
28 29 29 30 32 33 34 34 35 35 34 34 33 33 33 33 33 34 33 33 33 33 33 33 33 33 33 33 33 33 33 34 34 34 34 35 35 36 36 37 38 38 39 39 40 40 41 42 43 44 44 45 46 47 47 48 49 49 50 51 52 53 54 54 54 54 56 59 60 62 64 66 68 70 72 73 74 75 75 75 73 72 75 79 81 80 80
29 29 30 30 31 33 34 35 35 36 36 36 36 36 35 35 36 36 36 36 36 36 36 37 37 37 36 36 37 37 37 37 37 37 37 38 38 38 39 40 40 41 41 41 42 43 43 44 45 46 46 47 48 49 49 50 50 51 52 53 54 55 57 58 59 58 59 61 63 65 66 67 68 71 74 74 75 76 77 77 75 73 75 78 82 82 81
30 30 31 31 32 33 34 35 36 37 37 37 37 37 37 37 38 38 38 39 39 39 39 40 40 40 40 40 41 41 41 41 40 40 41 41 41 42 42 43 43 43 44 44 45 45 46 47 47 48 49 49 50 50 51 51 52 53 54 55 56 58 59 61 63 63 62 64 66 68 69 68 68 71 73 75 75 76 78 78 77 76 77 77 81 84 84
32 32 32 32 32 33 34 35 36 37 38 39 39 39 39 39 39 40 40 41 41 42 42 42 43 43 44 44 44 44 44 44 44 44 44 44 45 45 45 46 46 46 47 47 47 48 48 49 50 50 51 52 52 53 53 54 54 55 56 57 58 59 60 62 65 67 66 66 68 70 70 70 69 70 73 75 76 78 79 79 78 78 78 79 81 85 85
34 34 34 33 33 34 34 35 36 37 38 39 40 41 41 41 41 42 42 42 43 44 44 44 45 46 47 47 48 48 48 48 48 48 48 48 48 48 49 49 49 50 50 50 50 51 51 52 52 53 53 54 55 55 55 56 57 57 58 60 60 60 62 63 65 69 70 69 70 71 72 72 70 70 73 75 77 80 81 81 79 77 78 80 82 83 84
37 37 36 36 36 36 36 36 37 37 39 40 41 42 43 43 44 44 44 44 45 45 46 46 47 48 49 49 50 50 51 51 52 52 52 52 53 52 52 52 53 53 53 53 53 54 54 55 55 56 56 56 57 57 58 58 59 60 61 62 63 62 64 64 64 68 71 71 72 73 74 73 71 71 74 76 79 81 84 83 80 77 77 80 82 82 82
41 41 40 40 39 39 39 38 38 39 39 40 41 42 43 44 45 45 46 47 47 48 48 49 49 50 50 51 52 52 53 53 54 55 55 55 56 56 56 56 56 56 56 56 56 57 57 57 58 58 58 59 60 60 61 61 62 63 64 65 66 65 66 66 66 67 70 71 71 73 75 74 72 72 74 77 80 83 85 84 82 79 78 79 81 82 82
44 44 44 44 44 43 43 42 42 42 42 42 43 43 44 45 46 46 47 48 49 49 50 51 52 52 53 53 54 54 55 55 56 56 57 57 57 58 58 58 58 58 58 59 59 59 59 60 60 61 61 62 62 63 64 64 65 66 66 67 68 68 68 68 68 67 69 70 69 70 73 74 72 72 74 77 80 83 85 86 84 82 80 81 82 82 82
46 47 47 47 48 48 47 47 47 46 46 46 46 46 46 46 47 48 48 49 50 51 51 52 53 54 54 55 55 56 56 57 57 58 58 59 59 59 59 60 60 60 60 61 61 61 62 62 63 63 63 64 65 65 66 67 67 68 69 69 70 71 71 71 70 69 69 69 69 69 72 74 72 71 74 77 80 83 85 88 88 85 82 81 83 83 82
49 49 49 50 50 50 51 51 51 51 50 50 50 50 50 50 50 50 50 51 52 52 53 54 55 55 56 56 57 57 58 58 59 59 59 60 60 60 61 61 62 62 62 63 63 63 64 64 65 66 66 66 67 68 69 69 70 71 71 71 72 73 74 73 73 72 70 70 69 69 71 74 73 71 73 77 81 84 86 88 90 87 83 82 83 83 83
51 52 52 52 53 53 53 54 54 54 55 54 54 54 55 54 54 54 54 54 55 55 56 56 57 57 58 58 58 59 59 60 60 61 61 61 62 62 63 63 64 64 64 64 65 65 66 66 67 68 69 69 69 70 71 72 72 74 74 73 74 75 75 75 75 75 73 71 71 70 71 73 74 72 73 77 81 84 84 86 90 89 85 83 83 83 83
51 53 54 55 55 56 56 56 57 57 58 58 58 59 59 59 58 59 58 58 59 59 59 59 60 60 61 61 61 61 62 62 62 63 63 63 64 64 65 65 66 66 66 67 67 68 68 68 69 70 71 72 72 72 74 74 75 77 76 76 77 77 78 78 78 78 76 74 74 72 72 74 74 73 73 76 80 83 83 84 87 88 86 84 83 83 82
47 49 52 54 55 57 57 58 59 60 60 61 62 62 62 63 63 63 63 63 63 63 63 63 63 64 64 64 65 65 65 65 65 66 66 66 66 67 67 67 68 68 69 69 70 70 70 70 71 72 73 74 74 74 75 76 78 79 79 79 80 80 80 81 81 81 80 78 76 74 73 75 75 73 72 74 79 82 82 81 84 86 86 84 83 83 82
43 45 47 49 52 54 56 58 59 60 62 62 63 64 65 66 66 66 66 67 67 67 67 67 67 67 68 68 68 69 69 69 69 69 70 70 70 70 70 70 70 71 72 72 72 72 73 73 73 74 74 75 76 76 76 77 79 81 81 82 83 83 83 83 84 84 83 81 79 77 76 77 76 74 73 75 79 82 81 80 81 84 84 83 81 82 81
42 44 45 46 48 50 53 55 57 59 60 62 63 65 66 67 68 68 69 69 70 70 70 70 71 71 71 72 72 72 73 73 73 73 73 74 74 74 74 74 74 75 75 75 75 75 76 76 77 76 76 77 78 78 78 79 80 81 82 83 84 85 85 85 86 86 85 84 82 80 81 81 79 76 75 76 80 82 81 79 79 81 82 81 80 81 80
45 46 46 47 48 49 51 52 54 55 57 59 61 62 64 66 68 69 70 71 72 72 72 73 73 74 74 75 75 76 76 76 77 77 77 77 78 78 78 78 78 79 79 79 79 79 79 79 80 80 79 80 80 80 80 81 82 82 83 85 86 86 86 87 88 88 88 86 83 82 84 85 82 78 77 78 81 82 81 79 79 80 81 81 81 81 80
50 50 50 50 51 51 52 53 53 54 55 57 58 60 61 63 65 67 68 69 71 72 73 74 74 75 76 76 77 78 78 78 79 79 79 80 81 81 80 81 81 82 82 82 82 82 82 82 83 82 81 82 83 82 82 83 83 84 85 86 87 87 87 88 89 90 89 87 85 85 87 86 84 80 78 79 81 81 79 79 79 80 81 80 81 82 81
55 55 55 55 55 56 56 56 57 57 58 58 59 60 61 62 64 65 66 67 68 70 71 73 74 75 76 77 77 78 79 79 80 80 81 81 82 82 83 83 84 84 84 84 85 85 84 84 85 84 84 84 85 84 84 84 84 85 87 88 89 90 90 89 90 91 91 88 85 87 89 87 84 82 80 80 81 80 79 79 79 81 82 81 80 81 82
59 60 60 60 61 61 61 61 61 62 62 62 63 63 64 65 66 66 67 68 68 68 70 72 73 74 75 76 77 77 78 79 80 80 81 81 82 83 83 84 85 85 85 86 86 87 86 86 86 86 86 86 86 86 85 85 84 86 88 89 90 92 93 92 91 92 92 88 86 89 90 87 84 83 82 82 82 81 81 80 79 80 81 81 80 80 82
63 64 64 65 65 65 66 66 66 67 67 68 68 68 68 69 69 70 71 71 71 71 72 73 73 74 75 76 77 77 77 79 80 80 81 81 82 83 83 84 85 85 86 86 87 87 87 87 87 87 86 87 87 87 86 85 85 86 87 88 89 92 94 93 92 93 92 87 87 90 91 88 86 85 85 85 84 83 83 82 81 80 80 80 80 80 82
66 67 68 68 69 69 70 70 71 72 72 73 73 74 74 74 74 75 75 75 75 75 75 75 76 76 77 78 78 78 78 79 80 81 82 81 82 83 84 85 86 86 86 87 87 87 88 88 88 88 87 88 88 87 86 86 85 86 86 86 88 92 94 94 93 94 91 87 88 92 92 88 86 87 88 88 85 85 85 83 82 81 81 81 81 82 82
69 70 71 72 72 73 73 74 75 76 77 78 79 79 80 80 81 81 80 80 80 79 79 79 79 80 80 81 81 80 81 81 82 83 83 83 83 83 85 86 87 87 87 88 88 88 88 88 89 88 87 88 89 87 86 86 85 85 84 84 87 91 93 94 95 96 92 87 87 91 91 87 85 87 89 88 86 85 85 84 82 82 82 83 84 84 84
72 73 74 75 76 76 77 77 78 79 80 82 83 84 85 86 86 87 86 85 85 84 83 83 84 85 84 84 85 85 85 85 85 85 86 85 85 85 86 88 88 88 89 89 89 89 89 89 89 89 88 89 89 88 87 86 85 83 82 83 87 91 92 94 96 96 93 89 89 91 89 85 84 87 88 87 86 85 84 84 84 83 84 84 85 86 86
74 76 77 78 79 79 80 80 81 82 83 84 86 87 89 90 91 92 92 91 91 90 88 87 89 90 89 89 89 89 89 90 90 90 89 89 89 89 89 90 90 91 91 91 91 91 90 90 90 90 90 90 89 89 88 86 84 82 79 81 88 93 94 96 97 95 92 91 91 92 88 82 82 87 88 88 87 86 85 84 85 85 85 86 87 89 89
76 78 79 80 81 82 83 83 84 84 85 86 87 89 91 93 94 95 96 96 96 95 93 91 92 94 94 94 94 95 94 94 94 94 94 94 94 94 94 94 94 94 94 94 94 94 93 92 92 91 91 91 91 91 89 86 83 80 78 81 89 94 96 99 100 97 95 93 92 93 89 83 82 87 89 89 89 88 86 86 86 87 87 88 88 90 92
75 77 78 80 81 83 84 85 85 86 87 87 89 90 92 94 96 98 99 99 98 98 97 95 95 96 98 98 99 100 99 99 99 99 99 99 99 99 99 99 99 99 99 99 98 98 97 96 95 95 95 95 95 94 92 88 84 79 78 83 91 97 100 103 103 103 101 97 96 96 92 87 87 90 91 92 94 93 91 89 89 90 91 92 92 93 94
71 73 75 76 78 80 82 84 85 85 86 87 88 89 91 93 96 98 99 100 100 99 99 98 97 97 99 100 102 103 103 103 103 103 103 103 104 104 104 104 104 104 104 103 103 102 101 100 99 99 99 100 100 99 96 93 87 81 80 86 94 100 104 106 106 107 106 102 101 100 95 92 94 96 96 97 99 98 96 95 95 94 95 95 96 96 97
66 68 70 71 73 75 77 79 80 82 83 84 85 86 88 90 93 96 98 100 100 99 99 98 97 97 98 99 101 103 104 105 105 105 105 105 106 106 107 107 107 108 108 108 107 106 105 104 103 103 103 104 105 104 101 97 91 84 84 90 98 102 106 108 110 110 109 107 107 105 99 97 99 100 100 102 103 102 101 99 99 99 98 99 100 100 100
63 64 66 67 68 69 71 73 75 76 78 79 81 82 83 86 89 92 95 97 98 97 96 96 95 96 96 97 98 100 102 104 105 105 106 106 106 107 107 108 108 109 109 109 109 109 108 108 107 106 106 108 109 108 105 102 96 89 89 96 102 105 108 110 112 112 111 111 112 110 105 103 104 105 105 106 106 106 105 104 104 103 102 102 103 104 103
60 62 63 63 64 66 67 68 70 71 72 74 76 77 79 80 82 86 90 94 95 94 93 92 92 92 93 94 95 96 98 100 102 103 104 105 105 105 106 107 107 108 109 109 109 109 109 109 109 109 109 110 110 109 108 105 100 97 98 102 105 107 111 113 114 113 113 115 115 113 110 108 109 111 111 110 110 110 109 108 108 107 107 106 107 107 106
59 60 61 61 62 63 64 65 66 67 68 69 71 72 73 75 76 79 83 89 92 92 90 88 87 87 88 89 90 91 93 95 97 99 101 102 103 104 104 104 105 105 106 107 107 108 108 108 109 110 111 111 111 110 108 105 103 105 107 107 108 111 114 115 115 115 116 118 118 117 115 113 113 114 114 114 114 113 112 111 110 110 110 110 110 110 109
59 60 60 61 61 61 61 62 62 63 64 65 66 67 68 70 71 73 77 82 87 90 90 87 84 82 83 84 85 87 89 90 92 94 96 97 99 100 101 101 101 102 103 104 104 104 104 106 108 109 109 110 111 110 108 106 107 110 112 111 112 114 116 116 116 116 117 118 119 119 118 117 116 116 116 116 116 115 115 114 113 112 112 112 112 112 111
61 62 62 62 61 61 60 60 60 61 61 62 63 64 64 65 66 68 71 75 81 86 89 88 84 80 79 79 80 83 85 86 87 89 91 92 94 96 97 98 98 99 100 100 99 100 101 103 104 104 105 106 107 107 107 108 110 112 113 114 116 118 118 117 116 116 117 119 119 119 119 119 118 118 117 117 117 117 116 116 115 114 114 114 114 114 114
64 65 65 64 63 62 61 60 60 60 60 61 61 61 61 62 63 64 66 70 76 81 85 87 86 81 77 75 76 79 81 82 83 85 87 88 90 91 93 94 95 95 96 95 95 96 98 99 100 100 100 101 101 103 105 107 108 110 112 115 118 119 119 117 116 116 117 119 120 119 119 119 119 119 118 118 118 118 118 117 117 116 116 116 116 116 115
68 69 68 66 65 64 63 62 61 61 61 62 61 60 60 60 60 61 63 66 71 77 81 84 85 83 79 75 74 75 76 78 80 81 83 85 86 87 88 89 90 91 90 91 91 93 94 95 96 96 95 96 98 100 103 105 107 109 111 113 115 116 116 115 115 116 116 117 118 119 120 120 120 120 119 119 119 119 119 119 118 118 117 117 117 117 117
72 73 71 69 68 68 67 65 64 64 64 64 62 60 59 59 58 59 61 63 67 72 77 80 83 84 81 77 75 73 73 74 75 76 78 81 82 83 84 85 86 86 85 85 87 89 90 91 92 91 91 93 96 98 101 103 106 108 110 110 110 111 112 112 113 113 114 114 116 117 118 119 119 119 119 119 119 119 119 119 119 118 118 117 117 117 117
76 75 74 72 72 72 71 69 68 68 68 68 65 62 60 59 57 57 59 60 63 67 71 75 78 81 81 80 78 75 73 72 72 72 74 76 78 79 80 82 83 83 80 80 82 85 86 86 87 87 87 90 93 96 99 102 104 106 108 108 108 108 109 110 110 111 111 112 112 113 114 115 116 116 117 117 118 118 119 118 118 117 117 117 117 117 117
79 78 77 76 76 76 74 74 73 73 73 72 69 65 62 60 59 57 57 58 59 63 66 70 73 77 79 79 79 78 76 74 72 71 71 73 74 75 76 79 81 80 77 77 79 82 82 81 81 82 84 88 91 94 96 98 100 103 105 106 106 106 107 107 108 109 109 110 110 110 110 111 111 111 112 113 113 114 115 115 115 115 114 113 114 114 114
82 81 81 80 79 79 78 77 78 78 78 77 73 69 66 63 61 59 58 58 58 60 63 66 69 72 75 77 78 79 78 77 74 72 70 71 72 72 73 75 77 76 74 75 77 79 78 78 77 78 82 87 90 91 93 95 97 100 102 103 104 104 105 106 106 107 107 108 108 108 108 108 108 108 108 108 108 108 109 109 110 110 109 109 109 109 109
85 85 85 84 82 81 81 81 82 83 83 81 78 74 71 68 66 63 61 59 58 59 61 64 66 69 72 74 75 76 77 78 77 75 72 71 71 71 71 72 73 73 72 73 74 75 75 76 75 76 81 86 88 89 91 92 94 96 98 99 101 103 104 104 105 105 105 105 106 106 105 105 105 105 105 105 104 104 104 104 104 104 104 104 103 104 105
88 88 87 85 84 84 83 84 85 87 87 85 82 79 77 74 71 68 65 62 60 59 60 62 64 67 69 71 73 74 75 76 77 77 76 75 74 72 71 71 71 72 71 71 71 72 73 74 74 76 80 85 87 88 90 91 92 93 94 96 98 101 102 103 103 104 103 104 103 103 103 102 102 101 101 101 101 100 100 100 101 101 101 100 99 100 101
90 89 87 86 86 86 86 87 88 89 89 87 85 84 83 80 76 73 69 66 63 61 60 61 62 64 66 69 71 71 73 74 75 76 77 78 77 76 75 73 72 72 71 71 71 72 72 72 74 77 80 84 86 88 89 90 91 91 93 94 95 97 99 100 101 102 102 102 102 102 101 100 99 98 98 98 97 97 96 96 96 97 98 97 97 98 99
89 88 88 87 87 88 88 90 91 92 91 89 88 89 89 85 81 78 74 69 64 62 61 61 60 61 63 66 68 70 71 73 73 74 77 78 77 77 77 77 76 74 73 73 73 73 72 73 77 80 81 82 85 87 89 90 91 91 92 92 93 94 96 98 99 100 100 101 101 100 100 99 98 96 95 94 94 94 94 93 93 93 93 93 94 95 96
89 88 88 88 89 89 91 93 95 94 92 91 92 93 92 89 86 83 78 71 66 63 62 60 60 60 61 64 66 67 69 72 73 73 76 77 75 75 77 79 79 78 78 77 77 76 77 78 81 82 82 82 85 87 89 89 90 91 91 92 92 93 94 95 97 98 99 99 99 99 98 98 97 95 93 91 89 90 91 91 91 91 91 91 91 90 91
89 89 89 89 90 91 93 96 96 95 94 94 95 94 93 92 90 86 81 75 70 66 62 60 60 60 61 63 64 64 66 69 70 69 72 74 75 75 78 81 80 79 81 81 81 81 82 82 82 82 83 83 84 86 88 89 89 90 90 91 91 92 93 93 94 95 96 97 97 97 97 96 96 94 92 89 87 86 87 88 88 89 90 90 89 88 86
90 90 90 91 92 93 95 97 97 96 97 98 97 96 95 94 92 88 84 78 73 68 64 62 61 61 62 63 64 63 63 66 67 65 66 70 74 77 81 83 81 80 82 84 84 84 85 85 83 83 84 85 84 85 86 87 88 88 89 89 90 91 91 91 91 92 92 93 94 94 94 94 93 93 92 90 87 85 84 85 86 86 88 89 88 86 84
91 91 92 93 94 95 96 97 96 97 98 99 99 99 98 96 94 91 87 81 76 71 67 64 63 62 62 63 64 62 62 63 64 63 63 67 72 77 82 84 82 81 84 87 87 86 87 87 86 86 86 86 85 85 85 86 86 86 87 87 88 89 90 89 89 89 90 91 91 91 91 90 90 90 90 89 87 84 83 83 84 85 86 87 87 86 84
92 92 94 95 96 97 97 96 96 96 98 99 99 100 99 98 97 94 90 84 79 74 70 67 66 65 64 65 65 63 61 61 63 64 65 67 71 77 83 84 83 83 86 88 89 89 89 88 87 87 86 86 86 86 86 85 85 85 86 87 88 89 89 89 88 87 87 88 88 88 88 88 87 87 87 86 85 83 83 83 84 85 85 85 85 85 85
92 94 95 97 97 98 98 97 96 96 97 98 99 99 100 100 99 96 92 88 83 78 73 71 70 68 67 67 66 65 63 62 64 67 68 69 73 79 83 84 83 85 86 87 88 90 91 91 90 88 87 86 86 86 87 86 86 85 85 86 88 89 89 88 87 87 86 86 86 86 87 86 86 85 85 84 83 83 83 83 83 83 84 83 82 82 83
94 95 96 96 97 98 98 97 97 97 97 97 98 99 100 100 99 97 94 90 85 80 77 75 74 72 71 68 66 65 66 68 69 70 71 71 74 80 84 85 85 86 87 87 88 89 90 91 92 92 90 88 86 86 87 87 87 85 85 86 88 89 88 87 86 85 85 85 85 85 85 85 84 84 84 83 83 84 84 83 82 82 81 80 79 79 80
Wind_Direction
201 202 204 206 208 211 213 215 217 219 221 223 225 226 228 229 231 234 236 237 239 241 243 245 248 250 253 255 258 261 264 267 270 273 275 277 279 281 283 284 285 287 288 289 290 291 292 294 296 298 300 301 302 303 304 305 307 309 310 311 313 314 316 317 319 321 322 324 326 327 329 331 331 331 331 332 333 334 334 335 337 338 337 338 340 340 339
205 207 209 211 213 215 217 218 220 222 224 226 228 230 232 233 235 237 239 241 243 245 246 249 251 254 256 258 260 263 265 268 271 273 275 277 279 281 283 284 285 286 288 289 290 291 292 294 297 299 300 302 303 303 304 306 307 309 310 311 312 313 314 316 318 319 320 322 324 325 327 328 329 329 330 332 332 333 333 334 336 338 338 337 338 339 339
210 211 213 215 217 219 221 223 224 226 227 229 230 232 234 236 237 239 241 243 245 247 248 251 254 257 259 261 263 265 267 269 272 274 276 278 279 281 283 284 285 286 288 289 290 291 292 294 297 299 301 302 303 304 305 306 308 309 310 311 312 313 314 315 316 318 319 320 322 323 325 327 329 329 330 331 331 332 332 332 334 337 338 337 336 337 338
214 216 217 219 221 223 225 227 229 230 232 232 233 235 236 238 240 242 243 245 247 249 250 253 255 258 261 264 265 267 268 270 272 275 277 278 280 282 283 285 286 287 288 289 290 291 293 295 297 299 301 302 303 304 305 306 308 309 310 311 312 313 314 315 316 318 320 321 322 324 325 327 329 329 329 330 330 331 330 330 333 336 337 337 335 335 337
219 220 221 222 224 226 228 231 233 234 236 237 238 239 240 241 243 245 246 248 249 251 252 254 257 260 263 265 267 268 269 271 273 275 277 279 281 282 284 285 286 287 289 290 291 292 294 295 297 299 300 302 303 304 305 306 307 308 309 310 311 313 314 316 316 318 320 321 322 323 324 326 328 328 328 328 329 329 329 329 332 335 335 335 335 334 336
225 225 226 227 227 229 230 232 235 237 238 240 241 242 244 245 247 248 249 251 252 253 255 256 258 260 263 266 268 269 270 272 274 275 277 279 281 283 284 286 287 288 289 290 291 292 294 295 297 298 300 301 302 303 304 305 306 307 308 309 311 312 313 315 316 317 318 320 321 322 323 324 326 327 327 327 327 328 328 328 331 333 333 334 335 335 335
231 231 232 232 232 233 234 235 236 238 240 241 243 244 246 248 249 251 252 253 254 256 257 258 260 261 264 266 268 270 271 273 274 276 278 280 282 283 284 286 287 288 289 290 291 292 293 295 296 297 299 300 301 302 303 304 305 306 307 308 309 311 312 313 315 315 317 319 320 320 321 323 325 326 326 326 326 327 327 327 329 331 332 333 334 334 334
237 237 238 238 238 239 239 239 240 241 242 243 245 246 247 249 250 252 253 254 255 257 258 259 261 262 264 267 268 270 271 273 275 276 278 280 281 283 284 285 286 287 288 289 290 291 293 294 295 296 298 299 300 301 302 303 304 305 306 307 308 309 310 311 313 314 315 317 319 319 320 321 323 325 325 325 326 327 326 325 326 329 331 332 332 332 333
240 241 242 243 243 244 244 244 245 245 245 246 247 248 250 251 252 253 254 255 256 257 258 260 261 263 264 266 268 270 271 273 274 276 278 279 281 282 283 285 286 287 288 289 289 290 292 293 294 295 297 298 299 300 301 302 303 304 305 306 307 308 309 310 311 312 313 315 317 318 318 319 322 324 324 324 325 325 325 323 324 327 330 331 331 331 332
241 243 244 246 246 247 248 248 249 249 249 250 250 251 252 253 254 255 256 257 258 259 260 261 262 263 265 266 268 269 271 272 274 275 277 278 279 281 282 283 285 286 287 288 289 290 291 292 293 294 295 296 298 299 300 301 302 303 304 305 305 306 307 308 309 311 312 313 314 316 316 317 319 322 322 322 323 323 324 323 323 326 329 330 330 330 331
241 243 245 246 248 249 250 251 251 252 252 253 253 254 255 255 256 257 258 259 260 260 261 262 263 264 266 267 268 269 271 272 273 275 276 277 279 280 281 282 284 284 286 286 287 289 289 290 292 293 294 295 296 297 299 300 300 301 302 303 304 305 306 307 308 309 310 311 312 314 314 315 317 320 320 320 321 322 323 323 323 325 327 328 329 329 330
241 243 245 246 248 249 251 252 253 254 255 255 255 256 257 257 258 258 259 260 261 262 262 263 264 266 267 268 269 270 272 273 274 275 276 278 279 280 281 282 283 284 285 286 287 288 289 290 291 292 293 294 295 296 298 299 300 300 301 302 303 304 305 306 307 308 308 309 310 312 313 313 315 318 319 320 321 322 323 323 322 323 325 327 328 328 329
242 244 245 247 248 250 251 252 254 255 256 257 257 258 258 259 259 260 260 261 262 263 264 264 265 266 267 268 269 270 271 273 274 275 277 278 279 280 281 282 283 284 285 286 287 288 289 290 291 292 293 294 295 296 297 298 299 300 301 302 303 303 304 305 305 306 307 308 309 310 312 312 313 316 318 319 320 319 321 321 321 321 324 326 327 327 327
245 245 247 248 249 250 251 252 254 255 256 257 258 259 259 260 260 261 261 262 263 263 264 265 266 267 268 269 270 271 271 272 274 275 276 277 278 279 280 281 282 283 285 286 287 287 289 289 290 291 292 293 294 295 296 298 298 299 300 301 302 302 303 304 304 305 305 306 307 309 310 310 312 314 316 317 317 317 318 320 319 320 322 325 325 325 325
246 247 248 249 250 251 252 253 254 255 256 257 258 259 260 261 261 261 262 262 263 264 264 265 266 267 268 269 270 271 272 273 273 274 275 276 277 277 278 279 281 282 283 284 285 286 287 288 288 289 290 292 293 294 295 296 297 298 299 300 300 301 301 302 303 303 304 305 306 307 308 309 310 312 314 315 315 315 316 318 319 319 321 323 323 323 323
246 247 248 249 251 252 253 253 254 255 256 257 258 259 260 261 261 262 262 263 263 264 265 265 266 267 267 268 269 270 271 272 273 274 275 275 276 277 277 278 279 280 281 282 283 284 285 285 286 287 288 289 290 291 292 293 294 295 297 297 298 299 299 300 301 301 302 303 305 306 307 307 308 310 312 313 313 313 315 317 318 318 319 320 321 321 321
249 250 250 250 251 251 252 253 254 255 256 257 258 259 260 261 261 262 263 263 264 264 265 265 266 266 267 268 269 269 270 271 272 273 274 274 275 276 277 278 278 279 279 280 281 282 283 283 284 285 286 287 287 288 290 290 291 293 294 295 296 297 298 299 299 300 301 302 304 306 306 306 307 309 311 312 312 312 314 315 316 316 316 317 318 318 319
251 252 252 253 253 254 254 254 255 255 256 257 258 258 259 260 261 262 263 263 264 264 264 265 265 266 267 267 268 269 269 270 271 272 272 273 274 275 276 277 277 278 278 279 280 281 281 282 283 283 284 285 286 287 288 289 290 291 292 293 294 295 296 297 298 299 300 301 303 305 305 305 306 308 310 310 310 311 312 314 314 314 314 315 316 317 317
250 251 252 253 254 255 256 257 257 257 258 258 259 259 260 260 261 262 263 263 264 265 265 265 266 266 266 267 268 268 269 270 270 271 272 273 273 274 275 275 276 276 277 278 279 279 280 280 281 282 283 284 285 286 287 288 289 290 291 292 293 294 295 296 297 298 298 300 302 303 302 303 305 306 308 308 308 308 310 312 313 312 313 314 316 316 317
253 254 254 254 255 256 256 257 258 259 259 260 260 260 261 261 261 261 262 263 264 265 265 266 266 267 267 267 268 268 269 270 270 271 272 272 273 274 275 275 275 276 277 277 278 278 279 279 280 281 282 283 284 285 286 287 289 290 291 291 293 294 295 295 296 296 297 299 301 301 301 302 303 305 306 306 306 307 309 311 312 312 313 314 315 315 316
257 257 257 257 257 258 258 258 259 259 260 260 260 261 261 262 262 262 262 263 263 264 265 266 266 267 267 267 268 269 269 270 271 271 272 272 273 274 274 275 275 276 277 277 278 278 279 280 280 281 282 283 283 284 285 286 288 289 290 291 293 294 295 295 295 295 296 298 300 299 299 301 303 304 305 305 305 307 309 310 311 311 312 313 314 314 315
259 259 259 259 259 259 260 260 260 261 261 261 261 261 261 262 263 263 263 263 263 264 265 265 266 267 267 267 268 269 269 270 270 271 271 272 272 273 274 274 275 276 276 277 277 278 279 280 280 281 282 283 283 284 285 287 288 289 290 292 294 294 294 294 294 294 294 297 299 298 299 301 303 304 304 304 306 308 308 309 310 310 311 312 312 313 314
260 260 260 260 261 261 261 261 261 262 262 262 262 262 262 262 262 262 263 263 264 264 265 265 266 267 267 268 268 269 269 270 270 270 270 271 272 273 273 274 274 275 276 276 277 277 278 279 280 281 282 283 283 284 286 287 289 290 291 293 294 293 293 294 293 292 293 296 297 297 298 300 303 304 304 304 306 307 307 308 309 310 310 311 311 312 313
260 260 261 261 261 261 262 262 262 262 262 263 263 263 263 263 262 262 262 263 263 264 264 265 266 267 268 268 269 269 269 270 270 271 271 271 272 272 273 273 274 274 275 276 276 277 278 279 279 281 282 282 283 285 286 287 288 290 292 294 294 292 292 293 292 292 293 295 295 295 297 300 302 302 302 303 305 305 306 307 308 309 309 310 310 311 311
261 261 261 261 261 262 262 262 263 264 264 264 264 264 264 264 264 264 263 263 263 264 264 265 266 267 267 268 269 269 270 270 271 271 272 272 272 273 273 273 274 275 275 276 276 277 278 278 279 281 281 282 283 285 285 287 288 290 293 295 294 292 292 291 290 291 293 294 294 294 296 299 300 300 300 301 303 304 305 306 307 307 308 308 309 309 309
264 264 264 264 264 264 263 264 264 264 265 266 266 266 266 266 266 265 265 265 265 265 265 265 267 267 268 268 268 269 269 270 271 271 272 272 273 273 273 274 275 275 276 276 277 278 278 279 280 281 281 282 283 284 285 286 288 291 294 296 294 293 292 290 289 290 292 293 293 294 296 299 300 299 299 300 301 302 303 304 305 306 306 306 307 307 307
266 266 267 267 267 267 267 266 266 266 267 267 268 268 269 269 268 268 268 267 267 267 266 266 267 268 269 269 269 269 270 270 271 271 272 273 273 273 274 274 275 276 276 277 277 278 279 280 280 281 282 283 284 284 285 287 289 291 294 294 292 291 290 288 289 291 292 292 293 293 295 298 298 297 298 299 299 300 301 302 302 303 303 304 304 305 306
267 268 268 268 269 269 269 269 269 269 269 269 269 270 270 270 271 271 270 270 270 269 269 269 269 269 270 270 270 271 271 271 271 272 272 273 273 274 274 275 275 276 276 277 278 278 279 280 281 282 283 283 283 284 285 286 288 291 293 291 289 288 286 287 289 291 291 292 292 293 294 296 296 296 296 297 297 298 299 300 301 301 302 302 303 304 305
268 268 268 269 269 270 270 270 270 270 270 271 271 271 272 272 272 272 272 272 272 272 271 271 271 271 271 271 272 272 272 272 272 272 272 272 273 274 274 275 275 276 276 277 277 278 279 280 281 281 282 283 283 284 285 286 287 290 290 288 285 284 285 287 289 290 290 292 292 292 294 296 295 295 296 296 296 297 299 299 300 300 301 302 303 304 305
270 270 270 270 270 271 271 271 272 272 272 272 272 273 273 274 274 274 274 274 274 273 273 273 273 273 273 272 273 273 273 273 272 272 272 272 273 273 274 274 275 276 276 277 277 278 279 279 279 280 281 282 282 283 284 285 286 287 286 283 282 282 284 286 287 288 289 290 291 291 293 294 294 294 294 295 295 297 298 299 299 300 301 302 302 303 304
273 272 272 271 271 271 272 272 272 273 273 273 273 273 274 274 275 275 275 275 274 274 274 275 275 275 274 274 273 273 274 274 274 274 273 273 273 273 273 274 274 275 276 277 277 278 278 278 279 279 280 280 281 282 283 284 284 284 281 279 279 281 283 284 284 286 287 288 289 291 293 293 293 293 293 294 295 296 297 298 299 299 300 301 301 302 303
275 275 274 273 273 272 272 272 272 272 273 273 274 274 274 275 275 276 276 276 276 275 275 275 275 276 276 275 275 275 275 275 275 275 275 275 275 275 274 274 275 275 276 276 277 277 278 278 279 279 279 279 280 281 282 283 283 282 279 277 278 280 281 281 282 284 286 287 288 290 291 292 292 292 293 294 295 296 297 298 298 299 300 300 300 301 302
279 278 277 276 275 274 273 272 272 272 272 273 273 274 274 275 276 277 278 278 278 277 276 276 276 276 277 277 277 276 276 276 276 276 276 276 276 276 276 276 276 276 276 276 276 277 277 277 278 278 278 279 279 280 281 282 281 279 277 277 278 278 278 279 281 283 285 286 288 289 290 290 291 291 293 294 294 295 296 296 297 298 298 299 299 299 300
284 283 282 280 278 277 276 275 273 273 273 273 273 274 274 275 277 278 279 280 280 279 278 278 277 277 278 278 278 277 277 277 277 277 277 277 277 277 277 277 277 277 277 277 277 277 277 277 277 278 278 278 279 280 280 279 277 276 276 277 277 276 276 278 280 282 284 285 287 288 289 290 290 291 292 293 293 294 294 295 295 296 297 297 298 298 299
290 289 287 285 283 282 280 278 276 275 274 274 273 274 274 276 277 278 280 281 282 282 281 280 279 278 278 278 278 278 278 277 277 276 276 277 277 277 278 278 278 278 278 278 279 279 278 278 278 278 279 279 279 279 279 277 276 275 276 276 275 275 276 278 280 282 283 284 285 286 287 288 289 290 291 291 292 292 293 294 294 295 296 296 297 298 299
295 294 292 290 289 287 285 283 281 279 278 276 275 274 275 276 277 278 280 282 283 283 283 282 282 281 280 279 278 279 279 279 278 277 276 276 276 277 277 278 278 278 279 280 280 280 280 280 280 280 280 281 280 280 278 277 276 276 275 275 275 276 277 279 280 281 281 282 284 285 286 286 287 288 289 289 290 291 291 292 293 294 295 295 296 297 297
298 297 295 294 292 291 290 288 286 284 282 279 277 276 276 277 278 279 281 283 284 284 284 284 284 283 282 281 279 279 280 280 280 279 278 277 276 276 276 277 277 278 279 280 281 281 281 281 282 282 282 282 281 280 279 278 278 277 276 275 276 277 278 279 280 280 281 282 283 283 284 284 285 286 287 287 288 289 290 290 291 292 293 294 295 295 296
299 298 296 295 295 294 294 293 291 289 287 284 281 279 279 279 279 280 282 284 285 284 284 285 285 285 284 283 282 280 280 280 280 280 279 278 278 277 277 277 277 277 278 279 280 280 281 281 282 282 283 282 281 280 279 279 278 278 277 277 278 279 280 280 280 281 281 281 281 282 282 283 284 285 286 286 287 288 288 289 290 291 292 293 294 295 296
298 297 297 297 296 297 296 296 295 294 292 289 285 283 282 281 280 280 282 284 285 284 284 285 285 285 286 285 284 283 281 281 280 280 279 279 278 278 278 278 277 277 278 279 279 279 280 281 282 282 283 282 281 280 279 279 278 278 279 280 281 281 281 281 281 281 281 281 281 281 282 282 283 284 285 286 287 287 288 289 290 291 293 294 294 295 296
297 297 297 297 297 298 298 298 298 297 295 293 290 287 286 284 282 281 282 284 284 284 284 284 285 285 286 286 286 285 284 283 282 282 281 280 279 278 278 278 278 278 279 279 278 279 279 281 282 282 282 281 280 279 279 279 279 279 280 281 282 282 282 282 282 282 282 282 282 282 282 283 283 284 284 285 286 287 288 289 291 292 292 293 294 295 295
296 297 296 297 298 299 299 299 299 298 297 296 294 292 291 289 286 284 284 285 285 284 284 284 283 283 284 285 286 286 286 286 285 284 284 282 281 280 279 278 278 279 279 279 279 279 280 281 281 281 280 279 279 278 279 279 279 280 281 282 282 282 282 281 281 281 282 282 282 283 283 284 284 284 285 286 287 288 289 290 291 292 292 293 294 294 295
296 296 296 297 298 299 299 299 299 299 299 298 297 296 295 293 291 289 287 287 286 285 284 284 283 282 283 284 285 286 287 287 288 288 287 286 285 283 281 280 280 280 279 279 279 280 281 280 280 279 278 278 278 278 278 279 279 280 281 281 281 281 281 281 281 282 282 282 283 283 284 284 285 286 287 287 288 289 290 291 291 292 292 293 294 295 295
294 295 295 297 297 298 299 299 299 299 299 299 299 298 298 297 295 293 291 289 288 286 284 283 283 282 282 282 283 284 286 287 288 289 289 289 288 287 285 284 283 282 281 280 280 279 279 278 278 277 276 276 276 277 278 278 279 279 279 280 280 281 281 282 282 282 283 283 283 284 284 285 286 286 287 288 289 290 291 292 292 293 294 294 295 296 296
293 294 295 296 297 297 298 298 299 299 299 299 300 300 300 299 297 296 294 292 290 288 285 283 281 282 282 282 282 283 284 285 287 288 289 289 290 290 289 287 286 284 282 281 279 278 277 276 275 273 272 273 275 276 277 277 278 278 278 278 279 280 281 281 282 283 283 283 284 285 285 286 286 287 287 288 289 290 291 292 293 294 295 296 297 297 298
292 293 294 295 296 297 297 298 298 298 299 299 300 300 301 300 299 298 296 293 292 289 286 283 281 280 281 281 282 282 283 284 285 286 287 288 289 290 290 289 287 285 283 281 279 277 276 275 273 271 271 273 274 274 275 276 276 277 278 278 279 279 280 281 282 283 283 284 285 286 287 287 287 288 289 289 290 291 292 293 293 294 295 296 297 297 298
291 292 294 295 296 296 297 297 297 297 299 299 300 301 301 301 301 299 297 295 293 290 286 283 281 279 279 280 281 282 283 284 284 285 286 287 288 288 288 287 287 286 284 282 280 279 277 274 273 273 273 273 273 273 274 275 276 276 277 278 279 280 281 282 283 284 285 286 287 288 288 289 289 290 290 290 291 292 292 293 294 295 295 295 296 296 297
291 292 293 294 295 296 296 296 296 297 299 300 300 301 301 301 301 300 298 296 294 291 288 285 282 279 278 279 279 281 282 282 283 285 287 287 287 287 285 284 284 284 284 283 281 280 278 277 276 276 276 275 275 275 276 276 277 278 279 280 281 282 283 284 285 286 287 288 288 289 289 290 290 291 291 291 291 292 292 293 294 295 295 295 295 295 295
291 292 293 294 294 295 295 295 296 298 299 300 300 301 301 301 301 300 299 297 295 293 290 287 283 280 279 279 279 280 280 280 281 283 285 286 286 285 284 283 283 283 282 282 281 281 281 281 280 280 279 278 278 278 279 279 280 281 283 283 284 285 285 285 286 286 286 287 287 288 289 289 290 291 291 292 293 293 294 294 294 294 293 293 293 293 294
291 292 293 293 294 294 295 295 296 298 299 299 300 301 301 301 301 301 299 298 296 294 292 288 284 281 280 279 279 279 279 280 281 282 283 283 283 282 282 282 282 282 282 282 283 283 283 284 283 283 283 283 283 282 283 283 283 284 284 284 284 284 284 284 284 284 285 285 286 287 288 289 290 291 291 292 294 294 294 293 292 292 291 291 292 293 293
291 292 292 293 293 294 294 295 297 298 298 299 300 300 301 302 302 301 300 299 298 296 293 290 287 285 283 281 280 279 279 279 280 280 281 281 281 280 279 280 281 281 282 283 285 285 285 285 285 285 285 285 285 285 284 284 283 284 284 283 283 283 283 283 284 284 285 286 287 288 289 289 290 291 292 293 294 294 293 291 291 290 290 291 292 293 293
290 291 291 292 292 293 294 295 297 298 298 299 300 300 300 301 301 301 301 300 299 297 295 292 290 288 285 284 283 282 281 279 279 279 280 280 281 280 278 278 279 280 281 282 283 284 285 285 285 285 285 285 285 285 285 284 284 284 283 283 283 283 284 284 285 286 287 288 288 289 289 290 290 291 292 292 292 291 290 289 289 289 289 290 292 293 294
290 290 291 292 292 293 294 295 297 297 298 299 299 299 300 300 301 301 300 300 299 298 297 295 293 290 288 286 285 285 284 282 281 280 281 281 282 281 280 279 279 279 280 280 281 282 284 285 286 286 286 286 285 285 285 285 285 285 285 285 284 284 285 286 287 287 288 289 289 289 290 290 291 291 291 291 290 290 289 289 289 289 290 292 293 295 296
Height
10766 10768 10769 10771 10772 10774 10775 10777 10778 10780 10781 10782 10784 10784 10785 10786 10786 10787 10787 10788 10788 10788 10788 10788 10788 10788 10787 10787 10787 10787 10786 10786 10786 10785 10785 10784 10784 10783 10782 10781 10780 10779 10778 10777 10775 10774 10773 10771 10769 10768 10766 10765 10763 10761 10759 10757 10755 10753 10751 10748 10746 10743 10740 10737 10733 10728 10723 10720 10717 10713 10710 10707 10703 10699 10694 10688 10684 10679 10674 10669 10665 10657 10646 10640 10638 10631 10620
10766 10767 10769 10770 10771 10773 10774 10775 10776 10777 10779 10780 10781 10782 10783 10783 10784 10784 10785 10785 10786 10786 10786 10786 10785 10785 10785 10785 10785 10784 10784 10784 10783 10783 10782 10781 10781 10780 10779 10778 10777 10776 10775 10774 10772 10771 10770 10768 10766 10765 10763 10761 10760 10758 10756 10754 10752 10749 10747 10744 10742 10739 10737 10734 10732 10729 10723 10719 10715 10711 10708 10705 10700 10695 10690 10684 10678 10673 10668 10664 10661 10655 10645 10635 10632 10630 10621
10765 10767 10768 10770 10771 10772 10773 10774 10775 10776 10777 10778 10779 10779 10780 10781 10781 10782 10782 10782 10783 10783 10783 10783 10783 10783 10783 10783 10782 10782 10781 10781 10780 10780 10779 10779 10778 10777 10776 10775 10774 10773 10772 10770 10769 10768 10766 10765 10763 10761 10760 10758 10756 10754 10752 10750 10748 10746 10743 10740 10737 10735 10732 10729 10727 10726 10723 10718 10715 10711 10706 10702 10697 10690 10684 10679 10673 10667 10662 10657 10655 10652 10645 10634 10626 10625 10622
10763 10765 10767 10768 10770 10771 10772 10773 10774 10775 10775 10776 10777 10777 10778 10778 10779 10779 10779 10780 10780 10780 10780 10780 10780 10780 10780 10780 10779 10779 10778 10778 10777 10777 10776 10775 10775 10774 10773 10772 10770 10769 10768 10767 10765 10764 10763 10761 10759 10758 10756 10754 10752 10750 10748 10746 10744 10741 10739 10736 10733 10729 10726 10722 10719 10718 10716 10711 10707 10704 10700 10697 10692 10685 10679 10674 10668 10662 10656 10651 10649 10646 10643 10635 10624 10616 10616
10762 10763 10765 10766 10768 10769 10770 10771 10772 10773 10774 10775 10775 10775 10776 10776 10777 10777 10777 10777 10777 10777 10778 10778 10777 10777 10777 10777 10776 10776 10775 10775 10774 10774 10773 10772 10771 10770 10769 10768 10767 10766 10764 10763 10762 10760 10759 10757 10756 10754 10752 10750 10748 10746 10744 10742 10739 10737 10734 10731 10728 10725 10721 10717 10712 10709 10709 10707 10701 10697 10694 10691 10689 10683 10675 10669 10664 10658 10651 10645 10643 10640 10636 10632 10623 10611 10607
10760 10761 10763 10764 10766 10767 10768 10769 10770 10771 10772 10772 10773 10773 10773 10774 10774 10774 10775 10775 10775 10775 10775 10775 10775 10774 10774 10773 10773 10773 10772 10772 10771 10770 10770 10769 10768 10767 10766 10764 10763 10762 10760 10759 10758 10756 10755 10753 10751 10750 10748 10746 10743 10741 10739 10737 10735 10732 10730 10727 10724 10721 10717 10714 10708 10702 10701 10702 10697 10692 10689 10686 10684 10680 10673 10666 10659 10653 10647 10640 10638 10636 10630 10625 10620 10610 10602
10758 10759 10761 10762 10764 10765 10766 10767 10767 10768 10769 10770 10770 10770 10771 10771 10771 10771 10772 10772 10772 10772 10772 10772 10772 10771 10771 10770 10770 10769 10769 10768 10767 10766 10766 10765 10764 10763 10762 10760 10759 10758 10756 10755 10754 10752 10750 10749 10747 10745 10743 10741 10738 10736 10734 10732 10729 10727 10725 10722 10719 10717 10714 10711 10708 10699 10694 10694 10692 10688 10684 10681 10679 10676 10669 10663 10656 10649 10642 10636 10634 10634 10628 10620 10616 10609 10601
10756 10757 10759 10760 10761 10762 10763 10764 10765 10765 10766 10767 10767 10767 10768 10768 10768 10768 10769 10769 10768 10769 10768 10768 10768 10768 10767 10767 10766 10766 10765 10764 10763 10762 10762 10761 10760 10759 10758 10756 10755 10754 10752 10751 10749 10747 10746 10744 10742 10740 10738 10736 10734 10731 10729 10727 10724 10721 10719 10716 10713 10712 10709 10707 10706 10700 10692 10689 10687 10681 10678 10676 10675 10672 10665 10658 10652 10645 10638 10631 10629 10630 10626 10618 10612 10606 10600
10753 10754 10756 10757 10758 10759 10760 10761 10761 10762 10763 10763 10764 10764 10764 10764 10764 10765 10765 10765 10765 10765 10764 10764 10764 10763 10763 10763 10762 10762 10761 10760 10759 10758 10757 10757 10755 10754 10753 10752 10750 10749 10748 10746 10744 10743 10741 10739 10737 10735 10733 10731 10728 10726 10723 10721 10719 10715 10713 10711 10707 10706 10704 10701 10701 10699 10692 10688 10686 10680 10673 10670 10669 10667 10661 10654 10649 10643 10636 10627 10623 10624 10621 10615 10608 10602 10597
10749 10750 10752 10753 10754 10755 10756 10757 10758 10758 10759 10759 10760 10760 10760 10761 10761 10761 10761 10761 10760 10761 10761 10760 10759 10759 10759 10758 10757 10757 10756 10755 10754 10753 10752 10752 10751 10749 10748 10747 10745 10744 10742 10741 10739 10738 10736 10734 10732 10730 10728 10725 10723 10721 10718 10715 10713 10710 10707 10705 10702 10699 10698 10696 10695 10695 10691 10686 10684 10680 10672 10667 10666 10664 10658 10653 10647 10641 10634 10623 10616 10616 10614 10609 10603 10597 10592
10745 10746 10747 10749 10750 10751 10752 10753 10753 10754 10755 10755 10755 10756 10756 10756 10756 10756 10757 10756 10756 10756 10756 10755 10755 10754 10754 10753 10753 10752 10751 10750 10749 10748 10747 10746 10745 10744 10743 10742 10740 10738 10737 10735 10734 10732 10730 10729 10727 10724 10722 10720 10717 10715 10713 10710 10707 10704 10702 10700 10697 10693 10691 10689 10688 10688 10687 10683 10679 10677 10670 10663 10662 10661 10656 10650 10643 10637 10631 10619 10610 10610 10610 10604 10598 10592 10586
10742 10743 10744 10744 10745 10746 10747 10748 10749 10750 10750 10751 10751 10751 10751 10752 10752 10752 10752 10752 10751 10751 10751 10750 10750 10749 10748 10748 10747 10746 10746 10745 10744 10743 10742 10741 10740 10739 10737 10736 10734 10733 10732 10730 10728 10727 10725 10723 10722 10719 10716 10715 10712 10709 10707 10704 10701 10698 10695 10694 10691 10687 10684 10682 10680 10679 10679 10677 10674 10673 10668 10659 10656 10657 10652 10645 10637 10631 10627 10617 10605 10603 10605 10601 10594 10587 10581
10738 10739 10740 10740 10741 10742 10743 10744 10744 10745 10745 10746 10746 10746 10746 10747 10747 10747 10747 10747 10746 10745 10745 10745 10744 10743 10743 10742 10741 10741 10740 10739 10738 10737 10736 10735 10734 10733 10731 10730 10729 10727 10726 10724 10723 10721 10720 10718 10716 10713 10710 10708 10707 10704 10700 10698 10695 10691 10689 10687 10685 10681 10677 10675 10673 10670 10669 10670 10667 10665 10663 10655 10650 10650 10647 10641 10633 10627 10624 10618 10605 10597 10598 10595 10589 10583 10577
10734 10735 10736 10736 10737 10738 10738 10739 10739 10740 10740 10740 10741 10741 10741 10741 10741 10741 10741 10741 10741 10740 10740 10740 10739 10738 10737 10736 10736 10735 10733 10733 10732 10730 10729 10728 10727 10726 10725 10723 10722 10720 10719 10718 10716 10714 10714 10712 10710 10708 10704 10702 10701 10698 10694 10691 10688 10684 10682 10680 10677 10674 10670 10667 10664 10661 10660 10661 10659 10658 10656 10649 10645 10645 10643 10638 10630 10622 10620 10617 10605 10594 10591 10589 10585 10579 10573
10729 10730 10731 10731 10732 10733 10733 10734 10734 10735 10735 10735 10735 10735 10735 10735 10735 10735 10735 10735 10735 10734 10734 10734 10733 10732 10731 10730 10729 10728 10727 10727 10725 10724 10723 10722 10720 10719 10718 10716 10715 10714 10712 10710 10709 10708 10706 10705 10703 10702 10699 10696 10694 10692 10689 10685 10681 10677 10674 10673 10669 10665 10663 10659 10656 10652 10650 10651 10651 10650 10648 10644 10640 10640 10639 10634 10626 10617 10614 10613 10604 10593 10587 10585 10580 10575 10570
10724 10724 10725 10725 10726 10726 10727 10727 10728 10729 10729 10729 10729 10729 10729 10728 10728 10728 10728 10728 10728 10728 10728 10727 10727 10726 10725 10724 10723 10722 10721 10720 10719 10718 10716 10715 10713 10712 10711 10710 10708 10706 10704 10703 10701 10700 10699 10697 10695 10694 10693 10690 10687 10686 10684 10680 10676 10671 10668 10665 10661 10658 10656 10653 10648 10645 10642 10642 10642 10640 10638 10634 10632 10632 10631 10626 10619 10612 10608 10607 10601 10591 10584 10582 10578 10571 10565
10719 10719 10719 10719 10719 10720 10720 10721 10721 10722 10722 10722 10722 10722 10722 10722 10721 10721 10721 10720 10721 10720 10720 10720 10719 10719 10718 10717 10716 10715 10714 10713 10712 10711 10709 10707 10706 10705 10704 10703 10701 10699 10697 10695 10694 10693 10691 10689 10687 10686 10685 10683 10679 10679 10678 10674 10670 10666 10662 10659 10655 10651 10649 10646 10641 10638 10635 10634 10635 10633 10627 10623 10622 10623 10622 10617 10611 10604 10601 10601 10598 10589 10581 10577 10574 10568 10562
10713 10713 10714 10714 10714 10714 10714 10714 10715 10715 10715 10715 10715 10716 10715 10714 10714 10714 10713 10713 10712 10712 10711 10711 10711 10711 10710 10709 10709 10707 10707 10705 10704 10703 10702 10700 10698 10697 10697 10696 10693 10691 10689 10688 10687 10685 10683 10681 10679 10678 10678 10675 10671 10671 10670 10667 10664 10661 10656 10652 10648 10645 10642 10638 10634 10631 10628 10627 10628 10627 10620 10614 10614 10615 10614 10609 10602 10598 10595 10594 10591 10585 10578 10572 10567 10561 10557
10708 10708 10708 10708 10708 10708 10708 10708 10708 10709 10709 10708 10708 10709 10708 10707 10707 10706 10706 10705 10705 10704 10703 10703 10702 10702 10701 10700 10700 10698 10698 10697 10696 10695 10695 10693 10690 10689 10689 10687 10685 10682 10681 10680 10678 10676 10675 10673 10670 10669 10670 10667 10663 10663 10663 10659 10657 10654 10649 10644 10640 10638 10636 10632 10627 10623 10621 10621 10622 10618 10612 10608 10608 10608 10607 10602 10595 10592 10591 10589 10583 10576 10571 10567 10560 10552 10548
10703 10703 10703 10703 10703 10703 10703 10702 10702 10702 10702 10702 10701 10701 10700 10699 10699 10698 10698 10698 10697 10696 10695 10694 10693 10693 10692 10691 10690 10690 10689 10688 10687 10686 10686 10684 10682 10681 10680 10678 10675 10673 10672 10671 10669 10666 10665 10665 10662 10660 10660 10658 10655 10654 10654 10653 10650 10646 10640 10636 10632 10628 10625 10624 10620 10614 10611 10615 10616 10608 10601 10601 10602 10600 10598 10594 10589 10586 10585 10583 10577 10568 10561 10559 10554 10545 10539
10698 10697 10697 10697 10697 10697 10697 10697 10696 10696 10695 10695 10694 10694 10693 10692 10690 10690 10690 10689 10689 10689 10687 10685 10685 10684 10682 10682 10681 10681 10681 10679 10677 10677 10676 10675 10673 10671 10670 10668 10666 10664 10663 10662 10659 10657 10656 10656 10654 10652 10651 10649 10647 10646 10645 10645 10645 10640 10633 10629 10627 10619 10613 10613 10612 10604 10601 10608 10609 10598 10591 10593 10594 10592 10588 10583 10580 10579 10576 10574 10570 10563 10555 10551 10547 10540 10531
10691 10690 10690 10690 10690 10690 10690 10690 10689 10689 10688 10687 10686 10686 10685 10685 10683 10682 10681 10680 10681 10680 10678 10677 10676 10674 10673 10673 10672 10673 10672 10669 10668 10668 10666 10666 10664 10662 10661 10658 10656 10655 10654 10651 10650 10648 10646 10646 10645 10643 10643 10640 10637 10637 10637 10637 10638 10635 10628 10625 10621 10611 10602 10603 10603 10595 10593 10601 10600 10588 10583 10585 10585 10582 10577 10572 10571 10569 10564 10562 10560 10555 10549 10544 10540 10535 10527
10683 10683 10683 10683 10683 10683 10682 10682 10681 10680 10679 10678 10677 10676 10676 10675 10674 10673 10672 10671 10672 10671 10670 10669 10668 10666 10664 10664 10664 10663 10662 10660 10659 10657 10656 10657 10656 10653 10651 10648 10646 10646 10644 10641 10640 10639 10637 10637 10634 10634 10635 10632 10628 10629 10630 10628 10629 10627 10623 10621 10614 10599 10590 10590 10589 10584 10588 10596 10591 10577 10575 10579 10579 10572 10565 10562 10563 10560 10555 10552 10550 10545 10540 10536 10532 10528 10522
10675 10675 10675 10675 10674 10674 10674 10673 10672 10671 10670 10669 10668 10666 10665 10664 10663 10663 10663 10663 10663 10662 10662 10661 10660 10657 10656 10655 10654 10654 10652 10650 10649 10647 10646 10647 10646 10645 10642 10638 10636 10637 10635 10632 10631 10630 10629 10628 10625 10625 10626 10622 10619 10622 10622 10621 10621 10620 10618 10615 10603 10588 10581 10578 10571 10568 10578 10589 10585 10571 10569 10575 10575 10567 10558 10554 10554 10552 10547 10544 10542 10537 10532 10527 10522 10519 10516
10666 10666 10666 10666 10666 10665 10665 10665 10664 10663 10661 10660 10659 10657 10655 10654 10652 10651 10652 10653 10653 10654 10655 10654 10650 10648 10648 10647 10644 10643 10642 10640 10639 10637 10636 10636 10636 10635 10633 10628 10626 10627 10625 10622 10621 10620 10620 10619 10618 10618 10617 10613 10612 10614 10613 10614 10615 10616 10615 10607 10588 10575 10573 10567 10558 10557 10566 10574 10572 10565 10565 10570 10567 10558 10553 10550 10546 10543 10540 10535 10533 10530 10526 10521 10515 10510 10508
10658 10657 10657 10657 10657 10657 10657 10657 10656 10656 10654 10652 10650 10648 10646 10644 10642 10640 10640 10641 10642 10643 10647 10647 10641 10637 10638 10638 10634 10633 10632 10630 10629 10628 10626 10625 10625 10624 10622 10619 10617 10616 10614 10613 10612 10611 10610 10610 10609 10609 10607 10605 10605 10604 10604 10607 10609 10611 10613 10600 10574 10559 10556 10548 10543 10550 10559 10561 10558 10553 10558 10566 10560 10546 10542 10542 10538 10536 10534 10529 10524 10522 10518 10514 10509 10502 10498
10650 10649 10648 10648 10647 10647 10647 10647 10647 10647 10646 10644 10641 10639 10636 10633 10631 10630 10629 10630 10630 10631 10636 10638 10634 10629 10627 10626 10623 10622 10622 10620 10619 10617 10616 10615 10614 10613 10611 10610 10608 10605 10604 10603 10602 10601 10601 10601 10601 10599 10598 10596 10594 10593 10596 10600 10603 10607 10607 10591 10564 10548 10539 10528 10527 10536 10545 10549 10548 10542 10548 10560 10555 10541 10534 10532 10528 10528 10529 10524 10520 10515 10510 10507 10504 10498 10490
10641 10641 10640 10639 10638 10637 10636 10636 10636 10636 10635 10634 10632 10629 10626 10623 10621 10619 10618 10618 10618 10619 10622 10626 10625 10620 10617 10615 10611 10610 10609 10609 10608 10607 10605 10604 10602 10601 10600 10599 10597 10595 10593 10592 10592 10592 10591 10591 10592 10591 10589 10586 10582 10582 10587 10592 10597 10604 10601 10580 10553 10535 10522 10516 10518 10520 10524 10533 10535 10531 10537 10547 10543 10533 10528 10522 10516 10517 10519 10517 10513 10509 10503 10499 10496 10492 10486
10632 10632 10631 10630 10629 10628 10626 10625 10625 10625 10625 10624 10622 10619 10616 10613 10610 10608 10605 10605 10606 10607 10609 10612 10613 10610 10606 10603 10600 10597 10596 10596 10595 10594 10593 10592 10590 10589 10588 10586 10585 10584 10582 10580 10581 10582 10581 10582 10583 10580 10577 10574 10570 10571 10576 10581 10589 10599 10593 10568 10540 10521 10509 10508 10508 10504 10506 10515 10516 10516 10527 10533 10526 10520 10518 10510 10504 10505 10508 10506 10502 10499 10495 10490 10485 10482 10479
10624 10623 10622 10621 10620 10618 10617 10615 10615 10614 10614 10613 10612 10610 10606 10602 10599 10597 10594 10592 10593 10594 10596 10598 10599 10597 10594 10591 10588 10584 10583 10582 10581 10580 10580 10579 10578 10576 10575 10573 10572 10570 10569 10569 10569 10570 10571 10572 10571 10569 10567 10563 10556 10557 10565 10569 10579 10592 10584 10553 10525 10512 10505 10501 10496 10491 10495 10500 10497 10500 10514 10519 10511 10507 10506 10498 10491 10493 10496 10495 10491 10487 10485 10481 10475 10471 10468
10615 10614 10614 10613 10611 10610 10608 10606 10605 10604 10603 10602 10601 10599 10596 10593 10589 10585 10583 10581 10581 10582 10583 10585 10585 10583 10580 10578 10575 10572 10569 10568 10567 10566 10565 10565 10565 10563 10562 10561 10559 10558 10557 10557 10557 10558 10558 10558 10558 10558 10557 10550 10543 10545 10551 10554 10565 10577 10567 10536 10515 10508 10501 10491 10484 10482 10485 10486 10483 10489 10501 10502 10494 10490 10490 10487 10482 10479 10480 10481 10478 10475 10474 10471 10464 10460 10458
10607 10606 10605 10604 10602 10601 10599 10598 10596 10595 10593 10591 10590 10587 10586 10583 10580 10576 10572 10569 10568 10570 10571 10573 10572 10570 10566 10564 10562 10560 10558 10556 10553 10552 10551 10550 10550 10550 10549 10548 10547 10547 10546 10545 10544 10544 10545 10545 10544 10544 10541 10536 10533 10535 10538 10542 10549 10551 10538 10520 10511 10504 10491 10481 10477 10477 10476 10473 10471 10478 10488 10488 10480 10472 10471 10472 10471 10467 10466 10467 10465 10462 10461 10458 10453 10449 10447
10598 10597 10596 10595 10594 10592 10591 10588 10587 10585 10583 10581 10579 10576 10574 10573 10570 10566 10562 10557 10555 10556 10558 10560 10561 10558 10554 10552 10550 10547 10545 10544 10542 10541 10540 10538 10537 10537 10535 10535 10535 10534 10533 10532 10531 10532 10533 10531 10528 10527 10526 10523 10521 10521 10527 10533 10531 10518 10506 10504 10503 10493 10480 10474 10473 10471 10469 10465 10462 10464 10469 10473 10470 10464 10460 10459 10458 10456 10455 10455 10454 10452 10449 10445 10441 10439 10437
10589 10588 10587 10586 10585 10583 10581 10579 10577 10576 10573 10571 10569 10566 10564 10562 10559 10556 10552 10547 10544 10543 10543 10546 10548 10548 10544 10541 10539 10535 10533 10532 10532 10531 10530 10527 10525 10523 10522 10522 10522 10520 10519 10518 10519 10520 10519 10516 10512 10512 10513 10510 10507 10507 10512 10516 10507 10492 10486 10488 10485 10474 10467 10468 10469 10467 10464 10460 10456 10452 10452 10454 10455 10454 10452 10450 10446 10444 10442 10441 10441 10441 10438 10433 10428 10426 10424
10580 10579 10577 10577 10575 10573 10571 10569 10567 10566 10563 10561 10559 10557 10554 10552 10550 10546 10542 10537 10533 10531 10529 10530 10533 10536 10535 10532 10528 10524 10521 10521 10521 10521 10519 10517 10514 10511 10510 10511 10510 10507 10505 10507 10508 10507 10503 10500 10499 10500 10500 10498 10496 10494 10491 10488 10483 10476 10472 10469 10462 10455 10455 10460 10463 10462 10456 10449 10446 10445 10443 10441 10441 10440 10439 10437 10434 10431 10428 10426 10425 10425 10424 10420 10416 10412 10409
10571 10569 10568 10567 10565 10563 10560 10558 10557 10555 10553 10550 10548 10547 10545 10543 10540 10536 10532 10528 10524 10520 10518 10517 10517 10521 10523 10523 10519 10514 10510 10508 10507 10507 10507 10506 10504 10502 10500 10499 10498 10496 10495 10496 10496 10493 10489 10486 10486 10487 10487 10485 10483 10477 10468 10464 10464 10462 10455 10448 10443 10441 10444 10449 10453 10453 10446 10438 10435 10435 10433 10430 10429 10427 10425 10424 10421 10418 10416 10414 10412 10411 10409 10406 10403 10400 10397
10562 10560 10559 10557 10555 10553 10550 10548 10546 10544 10541 10538 10537 10537 10535 10533 10530 10527 10522 10519 10514 10510 10507 10506 10504 10505 10509 10510 10508 10506 10502 10498 10495 10494 10493 10492 10492 10491 10489 10488 10487 10486 10487 10487 10484 10480 10477 10474 10473 10474 10474 10471 10465 10458 10450 10445 10443 10440 10436 10433 10431 10431 10433 10436 10437 10437 10434 10430 10425 10423 10419 10416 10415 10414 10413 10411 10408 10406 10404 10402 10400 10398 10397 10395 10392 10389 10385
10554 10552 10550 10548 10546 10543 10541 10538 10536 10533 10529 10526 10525 10526 10525 10522 10521 10518 10514 10510 10506 10500 10497 10495 10492 10491 10493 10495 10494 10494 10493 10489 10485 10483 10480 10478 10477 10478 10477 10476 10475 10476 10478 10478 10473 10468 10466 10463 10461 10463 10463 10457 10447 10440 10434 10428 10423 10418 10416 10417 10421 10422 10421 10420 10419 10420 10420 10418 10413 10409 10406 10403 10400 10399 10398 10397 10394 10392 10390 10388 10386 10384 10383 10381 10379 10376 10372
10546 10543 10541 10540 10537 10534 10532 10529 10525 10522 10518 10514 10513 10514 10514 10512 10511 10508 10505 10502 10497 10492 10488 10485 10482 10479 10480 10480 10480 10480 10480 10478 10475 10473 10470 10467 10466 10466 10465 10462 10461 10464 10468 10468 10462 10456 10454 10453 10453 10453 10451 10443 10432 10424 10418 10412 10407 10402 10400 10403 10408 10408 10406 10404 10403 10403 10402 10401 10399 10397 10394 10391 10389 10386 10384 10382 10380 10376 10373 10372 10371 10370 10369 10367 10364 10361 10358
10537 10535 10533 10531 10528 10525 10523 10519 10516 10511 10507 10503 10501 10502 10502 10500 10499 10498 10496 10493 10489 10484 10481 10477 10473 10469 10468 10468 10466 10465 10465 10465 10464 10462 10460 10457 10455 10455 10454 10451 10448 10451 10456 10455 10449 10444 10444 10445 10445 10442 10435 10426 10417 10409 10404 10399 10395 10391 10389 10392 10394 10392 10388 10387 10386 10384 10382 10381 10381 10380 10379 10378 10378 10376 10373 10371 10370 10367 10363 10361 10359 10358 10357 10356 10353 10349 10345
10528 10526 10524 10522 10519 10517 10514 10510 10506 10501 10496 10492 10490 10490 10489 10488 10487 10486 10484 10482 10480 10476 10472 10469 10465 10461 10459 10457 10455 10453 10451 10451 10450 10450 10450 10447 10444 10444 10444 10440 10437 10440 10443 10441 10435 10433 10434 10434 10434 10429 10419 10408 10400 10395 10391 10388 10385 10382 10380 10380 10378 10375 10372 10370 10368 10367 10366 10365 10364 10363 10363 10363 10363 10363 10362 10361 10361 10359 10356 10354 10351 10349 10346 10344 10342 10340 10334
10519 10517 10515 10513 10511 10508 10505 10501 10496 10491 10486 10482 10480 10479 10477 10475 10474 10473 10472 10470 10469 10466 10463 10459 10456 10453 10450 10448 10446 10443 10440 10438 10437 10437 10437 10435 10432 10431 10431 10428 10426 10428 10429 10427 10424 10424 10422 10420 10418 10413 10401 10389 10384 10382 10380 10377 10375 10373 10369 10366 10362 10358 10356 10354 10352 10352 10352 10351 10350 10349 10349 10349 10349 10350 10349 10349 10348 10347 10345 10343 10341 10339 10337 10334 10332 10329 10322
10510 10508 10506 10505 10502 10499 10496 10492 10487 10481 10476 10473 10470 10468 10465 10463 10461 10460 10459 10458 10456 10455 10453 10450 10447 10444 10442 10439 10436 10434 10431 10428 10426 10425 10423 10422 10419 10418 10418 10417 10414 10413 10413 10413 10412 10410 10406 10403 10401 10394 10382 10373 10371 10371 10368 10365 10363 10361 10357 10352 10348 10344 10342 10340 10339 10338 10337 10336 10336 10336 10337 10337 10337 10337 10336 10335 10335 10334 10334 10331 10326 10323 10322 10322 10321 10317 10310
10501 10499 10498 10496 10493 10489 10486 10483 10477 10471 10467 10464 10461 10457 10453 10451 10449 10448 10446 10444 10443 10443 10441 10439 10437 10436 10433 10430 10427 10425 10422 10419 10417 10414 10410 10408 10407 10406 10404 10403 10401 10399 10398 10397 10394 10391 10389 10386 10378 10370 10364 10361 10360 10358 10354 10351 10349 10347 10343 10340 10337 10334 10330 10328 10326 10325 10323 10322 10322 10322 10323 10324 10325 10325 10325 10324 10321 10320 10321 10321 10317 10312 10309 10307 10306 10303 10296
10492 10490 10489 10488 10484 10479 10476 10472 10466 10461 10458 10456 10451 10446 10442 10439 10438 10435 10432 10432 10432 10430 10428 10428 10427 10426 10423 10420 10418 10416 10413 10410 10408 10404 10398 10396 10397 10395 10389 10385 10384 10383 10381 10378 10374 10371 10371 10365 10354 10348 10350 10352 10348 10343 10339 10337 10335 10332 10331 10329 10327 10324 10321 10317 10315 10314 10312 10311 10310 10311 10311 10311 10311 10312 10313 10314 10311 10308 10307 10306 10305 10303 10301 10298 10295 10292 10286
10484 10482 10480 10479 10475 10471 10466 10461 10455 10450 10449 10446 10441 10436 10432 10428 10425 10421 10419 10419 10419 10418 10417 10417 10417 10415 10413 10409 10407 10406 10403 10399 10397 10395 10389 10385 10386 10383 10375 10369 10368 10365 10361 10359 10357 10354 10350 10344 10338 10336 10339 10341 10336 10330 10327 10326 10323 10321 10320 10319 10317 10315 10313 10310 10307 10305 10303 10301 10301 10301 10299 10298 10298 10299 10301 10304 10304 10301 10296 10292 10290 10289 10288 10286 10284 10283 10280
10475 10473 10471 10469 10466 10462 10457 10450 10444 10441 10438 10434 10429 10425 10421 10417 10413 10409 10406 10406 10405 10405 10405 10406 10405 10403 10401 10398 10397 10397 10393 10387 10386 10386 10380 10372 10370 10367 10359 10354 10354 10350 10343 10340 10340 10336 10330 10329 10330 10329 10327 10326 10324 10321 10317 10315 10314 10313 10312 10311 10310 10308 10306 10303 10301 10299 10296 10292 10290 10289 10287 10285 10285 10285 10286 10290 10293 10293 10289 10285 10281 10277 10273 10269 10269 10270 10270
10465 10463 10461 10459 10456 10452 10446 10440 10435 10432 10427 10421 10417 10413 10409 10405 10401 10396 10393 10392 10392 10393 10393 10393 10391 10390 10389 10386 10385 10386 10383 10376 10375 10376 10370 10360 10353 10348 10339 10336 10340 10338 10329 10323 10324 10322 10317 10317 10320 10318 10314 10313 10314 10312 10309 10308 10308 10307 10306 10304 10302 10299 10296 10294 10293 10291 10287 10282 10280 10279 10277 10275 10274 10273 10273 10275 10279 10282 10281 10277 10272 10266 10260 10255 10253 10254 10254
10455 10453 10451 10447 10443 10440 10435 10429 10426 10423 10418 10411 10406 10401 10396 10392 10388 10384 10380 10380 10380 10380 10380 10379 10377 10377 10377 10375 10373 10374 10372 10366 10364 10362 10357 10348 10339 10330 10321 10320 10324 10322 10315 10311 10313 10313 10309 10307 10307 10306 10303 10301 10301 10302 10301 10300 10299 10297 10295 10292 10288 10284 10282 10281 10281 10279 10276 10272 10269 10269 10268 10267 10265 10264 10262 10263 10266 10268 10268 10264 10258 10253 10248 10242 10238 10237 10237
10445 10444 10441 10435 10430 10427 10423 10418 10416 10414 10408 10402 10396 10390 10384 10380 10375 10370 10368 10367 10367 10367 10367 10365 10362 10362 10362 10360 10359 10360 10361 10357 10351 10345 10340 10335 10326 10314 10306 10307 10309 10307 10304 10303 10303 10300 10298 10297 10295 10294 10293 10291 10289 10287 10287 10285 10284 10283 10281 10277 10272 10268 10266 10267 10267 10266 10265 10263 10261 10258 10256 10256 10255 10254 10252 10252 10253 10253 10251 10248 10243 10238 10233 10230 10227 10224 10222
10435 10433 10429 10424 10419 10415 10411 10407 10405 10403 10398 10393 10387 10380 10374 10369 10364 10358 10355 10355 10354 10354 10352 10350 10348 10347 10347 10345 10344 10344 10344 10342 10336 10328 10324 10321 10312 10299 10293 10296 10297 10295 10294 10295 10291 10286 10284 10284 10282 10280 10280 10279 10277 10274 10271 10269 10269 10269 10268 10263 10257 10253 10253 10254 10254 10254 10254 10253 10251 10247 10245 10243 10243 10242 10240 10239 10238 10235 10232 10231 10228 10224 10220 10219 10219 10215 10212
10422 10420 10417 10413 10408 10403 10399 10397 10394 10391 10387 10382 10376 10370 10364 10359 10353 10348 10345 10342 10341 10340 10338 10336 10333 10331 10330 10331 10332 10330 10325 10321 10316 10311 10309 10308 10299 10286 10280 10284 10286 10284 10283 10283 10280 10276 10274 10272 10268 10265 10265 10265 10264 10262 10258 10254 10254 10256 10255 10250 10244 10241 10242 10244 10244 10244 10242 10241 10239 10236 10234 10232 10230 10227 10225 10224 10221 10217 10213 10213 10213 10212 10210 10210 10210 10208 10204